Time,TemperatureF,DewpointF,PressureIn,WindDirection,WindDirectionDegrees,WindSpeedMPH,WindSpeedGustMPH,Humidity,HourlyPrecipIn,Conditions,Clouds,dailyrainin,SoftwareType,DateUTC
2013-01-30 08:21:00,41.5,39.9,30.34,West,276,0.0,0.0,94,0.00,,,0.01,Wunderground v.1.15,2013-01-30 16:21:00,
2013-01-30 08:31:00,42.2,40.6,30.34,West,278,0.0,0.0,94,0.00,,,0.01,Wunderground v.1.15,2013-01-30 16:31:00,
2013-01-30 08:51:00,46.3,43.8,30.34,West,281,0.0,0.0,91,0.00,,,0.01,Wunderground v.1.15,2013-01-30 16:51:00,
2013-01-30 09:01:00,49.3,45.6,30.35,West,281,0.0,0.0,87,0.00,,,0.01,Wunderground v.1.15,2013-01-30 17:01:00,
2013-01-30 09:11:00,52.6,47.6,30.35,West,281,0.0,0.0,83,0.00,,,0.01,Wunderground v.1.15,2013-01-30 17:11:00,
2013-01-30 09:21:00,55.5,47.7,30.35,West,281,0.0,0.0,75,0.00,,,0.01,Wunderground v.1.15,2013-01-30 17:21:00,
2013-01-30 09:31:00,58.2,48.1,30.35,West,281,0.0,0.0,69,0.00,,,0.01,Wunderground v.1.15,2013-01-30 17:31:00,
2013-01-30 09:41:00,58.6,47.3,30.35,WNW,282,0.0,1.0,66,0.00,,,0.01,Wunderground v.1.15,2013-01-30 17:41:00,
2013-01-30 09:51:00,57.7,46.8,30.35,West,281,0.0,1.0,67,0.00,,,0.01,Wunderground v.1.15,2013-01-30 17:51:00,
2013-01-30 10:01:00,57.9,47.4,30.35,SSW,213,1.0,1.0,68,0.00,,,0.01,Wunderground v.1.15,2013-01-30 18:01:00,
2013-01-30 10:11:00,58.3,47.0,30.35,ENE,60,1.0,1.0,66,0.00,,,0.01,Wunderground v.1.15,2013-01-30 18:11:00,
2013-01-30 10:21:00,59.2,47.0,30.35,ESE,120,0.0,2.0,64,0.00,,,0.01,Wunderground v.1.15,2013-01-30 18:21:00,
2013-01-30 10:31:00,59.1,46.1,30.35,ESE,112,1.0,3.0,62,0.00,,,0.01,Wunderground v.1.15,2013-01-30 18:31:00,
2013-01-30 12:11:00,61.7,46.8,30.31,NE,53,1.0,3.0,58,0.00,,,0.01,Wunderground v.1.15,2013-01-30 20:11:00,
2013-01-30 12:21:00,62.5,45.1,30.31,NE,37,1.0,2.0,53,0.00,,,0.01,Wunderground v.1.15,2013-01-30 20:21:00,
2013-01-30 12:31:00,63.4,44.4,30.31,NE,37,2.0,2.0,50,0.00,,,0.01,Wunderground v.1.15,2013-01-30 20:31:00,
2013-01-30 12:41:00,63.9,45.4,30.30,NE,34,2.0,2.0,51,0.00,,,0.01,Wunderground v.1.15,2013-01-30 20:41:00,
2013-01-30 12:51:00,63.5,44.5,30.30,NE,46,2.0,2.0,50,0.00,,,0.01,Wunderground v.1.15,2013-01-30 20:51:00,
2013-01-30 13:52:00,62.7,45.8,30.28,NE,36,2.0,6.0,54,0.00,,,0.01,Wunderground v.1.15,2013-01-30 21:52:00,
2013-01-30 14:01:00,62.4,45.5,30.27,NE,42,2.0,3.0,54,0.00,,,0.01,Wunderground v.1.15,2013-01-30 22:01:00,
2013-01-30 14:11:00,62.1,45.7,30.27,ENE,59,2.0,2.0,55,0.00,,,0.01,Wunderground v.1.15,2013-01-30 22:11:00,
2013-01-30 14:21:00,62.4,46.0,30.27,NE,39,2.0,2.0,55,0.00,,,0.01,Wunderground v.1.15,2013-01-30 22:21:00,
2013-01-30 14:31:00,62.9,47.0,30.27,NE,45,2.0,2.0,56,0.00,,,0.01,Wunderground v.1.15,2013-01-30 22:31:00,
2013-01-30 14:41:00,63.1,47.1,30.27,NE,39,2.0,2.0,56,0.00,,,0.01,Wunderground v.1.15,2013-01-30 22:41:00,